Volver al catálogo

PEARL-1A

ActivoComunicacionesSSO
NORAD 68990·PAYLOAD·🇮🇹 Italy

Lanzado May 3, 2026 desde Vandenberg Space Force Base

Loading…

Próximos Pases (próximas 24 horas)

TLE

ActualizadoSource: Space-Track

Época: Sep 13, 2026, 22:44 UTC

1 68990U 26100L   26256.94746411  .00001457  00000-0  15221-3 0  9999
2 68990  97.7182 152.4623 0004159 217.9761 142.1165 14.91178610 19922

Sigue PEARL-1A en tiempo real con AllMySat

Download on the App Store